User: anonymous   Login
Location: Bambrugge
(50.9212°N, 3.9299°E)
Time: 18:30:11
(UTC+00:00)
Language:

Okean 2 Rocket - Orbit

View from above orbital plane
View from above orbital plane
View from above satellite
View from above satellite

Ground track
Ground track

The orbit data is extracted from the following two-line orbital elements,

1 20511U 90018B   24202.13020567  .00000799  00000-0  99844-4 0  9994
2 20511  82.5202  61.2702 0015085 256.3977 103.5557 14.81114277855185
Epoch (UTC): 20 July 2024 03:07:29
Eccentricity: 0.0015085
inclination: 82.5202°
perigee height: 615 km
apogee height: 636 km
right ascension of ascending node: 61.2702°
argument of perigee: 256.3977°
revolutions per day: 14.81114277
mean anomaly at epoch: 103.5557°
orbit number at epoch: 85518

The dashed part of the orbit path shows where the satellite is in the earth's shadow,  

DLR